Terminal Aerodrome Forecast
Issued by NWS

Home | Current Version | Previous Version | Text Only | Print | Product List | Glossary On
Versions: 1 2 3 4 5 6 7 8 9 10 11 12 13 14 15 16 17 18 19 20 21 22 23
000
FTUS41 KBGM 260500 RRA
TAFELM
TAF
KELM 260542Z 2606/2706 28005KT P6SM SCT050
     FM261000 30010KT P6SM SCT025 OVC040
     FM261300 31020G30KT P6SM OVC045
     FM270200 32012KT P6SM OVC025=

USA.gov is the U.S. government's official web portal to all federal, state and local government web resources and services.